Location: Unspecified
(29.9680°N, 0.0000°E)
Time: 05:14:29
(UTC+00:00)

A-11 Canister half - Pass Details

Date: 20 June 2019
Orbit: 1526 x 1683 km, 47.3° (Epoch: 21 August)

Event Time Altitude Azimuth Distance (km) Brightness Sun altitude
Rises 03:22:21 0° 216° (SW) 4,793 - -18.1°
Reaches altitude 10° 03:25:31 10° 213° (SSW) 3,788 - -17.5°
Exits shadow 03:27:59 20° 209° (SSW) 3,034 10.0 -17.1°
Maximum altitude 03:34:56 64° 134° (SE) 1,696 9.2 -16.0°
Drops below altitude 10° 03:44:06 10° 56° (NE) 3,703 12.4 -14.5°
Sets 03:47:09 0° 53° (NE) 4,681 13.6 -13.9°
